Location: Borowce
(50.8255°N, 19.6209°E)
Time: 23:11:53
(UTC+00:00)

Cosmos 1536 - Pass Details

Date: 19 May 2025
Orbit: 494 x 518 km, 82.5° (Epoch: 16 June)

Event Time Altitude Azimuth Distance (km) Brightness Sun altitude
Rises 21:31:01 0° 340° (NNW) 2,642 8.1 -17.7°
Reaches altitude 10° 21:33:23 10° 328° (NNW) 1,745 6.5 -17.8°
Maximum altitude 21:36:37 27° 270° (W) 1,014 4.3 -17.9°
Enters shadow 21:38:17 19° 230° (SW) 1,243 4.4 -18.0°
